User: anonymous   Login
Location: Ostrava
(49.8330°N, 18.2830°E)
Time: 16:36:04
(UTC+02:00)
Language:

Iridium 7 - Orbit

View from above orbital plane
View from above orbital plane
View from above satellite
View from above satellite

Ground track
Ground track

The orbit data is extracted from the following two-line orbital elements,

1 24793U 97020B   18114.74285675 +.00000057 +00000-0 +13353-4 0  9993
2 24793 086.4018 188.7695 0002337 096.0153 264.1309 14.34251607097629
Epoch (UTC): 24 April 2018 17:49:42
Eccentricity: 0.0002337
inclination: 86.4018°
perigee height: 776 km
apogee height: 779 km
right ascension of ascending node: 188.7695°
argument of perigee: 96.0153°
revolutions per day: 14.34251607
mean anomaly at epoch: 264.1309°
orbit number at epoch: 9762

The dashed part of the orbit path shows where the satellite is in the earth's shadow,  

DLR